Location: El Álamo
(40.2307°N, 3.9945°W)
Time: 03:45:45
(UTC+00:00)

Cosmos 1697 Rocket - Pass Details

Date: 19 May 2025
Orbit: 830 x 844 km, 71.0° (Epoch: 23 June)

Event Time Altitude Azimuth Distance (km) Brightness Sun altitude
Rises 21:18:41 0° 340° (NNW) 3,404 7.1 -17.5°
Reaches altitude 10° 21:21:11 10° 345° (NNW) 2,467 6.1 -17.8°
Maximum altitude 21:26:45 55° 63° (ENE) 1,005 3.0 -18.5°
Enters shadow 21:29:07 33° 125° (SE) 1,392 3.3 -18.8°
